"read_dt","SO2 (ppb)","flags","PMT voltage (V)","lamp voltage (V)","lamp intensity (Hz)","internal temp (C)","react chamber temp (C)","sample flow (l/min)","pres (mmHg)","SO2 bkg (ppb)","SO2 coefficient"
2014-10-07 00:00:00,2033E-3,5C000000,-0724,0828,12265,027.2,045.5,0.480,741.4,01.18,0.508
2014-10-07 00:01:00,1908E-3,5C000000,-0724,0828,12371,027.2,045.5,0.480,741.4,01.18,0.508
2014-10-07 00:02:00,2012E-3,5C000000,-0724,0829,12239,027.2,045.4,0.480,741.4,01.18,0.508
2014-10-07 00:03:00,2027E-3,5C000000,-0724,0828,12276,027.1,045.4,0.480,741.4,01.18,0.508
2014-10-07 00:04:00,1939E-3,5C000000,-0724,0828,12207,027.1,045.4,0.480,741.4,01.18,0.508
2014-10-07 00:05:00,2041E-3,5C000000,-0724,0828,12238,027.1,045.5,0.480,741.4,01.18,0.508
2014-10-07 00:06:00,2037E-3,5C000000,-0724,0828,12290,027.0,045.4,0.480,741.5,01.18,0.508
2014-10-07 00:07:00,1941E-3,5C000000,-0724,0828,12123,027.0,045.4,0.480,741.4,01.18,0.508
2014-10-07 00:08:00,1890E-3,5C000000,-0724,0828,12246,027.0,045.4,0.480,741.4,01.18,0.508
2014-10-07 00:09:00,1976E-3,5C000000,-0724,0828,12291,027.0,045.4,0.480,741.5,01.18,0.508
2014-10-07 00:10:00,2065E-3,5C000000,-0724,0828,12171,027.0,045.4,0.480,741.4,01.18,0.508
2014-10-07 00:11:00,1865E-3,5C000000,-0724,0827,12252,027.0,045.4,0.480,741.4,01.18,0.508
2014-10-07 00:12:00,1971E-3,5C000000,-0724,0828,12322,027.0,045.4,0.480,741.4,01.18,0.508
2014-10-07 00:13:00,2046E-3,5C000000,-0724,0828,12168,027.0,045.4,0.480,741.5,01.18,0.508
2014-10-07 00:14:00,1984E-3,5C000000,-0724,0827,12130,027.0,045.4,0.480,741.5,01.18,0.508
2014-10-07 00:15:00,2038E-3,5C000000,-0724,0827,12112,027.1,045.4,0.480,741.5,01.18,0.508
2014-10-07 00:16:00,1867E-3,5C000000,-0724,0828,12204,027.1,045.5,0.480,741.4,01.18,0.508
2014-10-07 00:17:00,2076E-3,5C000000,-0724,0827,12257,027.2,045.5,0.480,741.5,01.18,0.508
2014-10-07 00:18:00,2049E-3,5C000000,-0724,0828,12209,027.2,045.4,0.480,741.5,01.18,0.508
2014-10-07 00:19:00,1975E-3,5C000000,-0724,0829,12225,027.2,045.4,0.480,741.5,01.18,0.508
2014-10-07 00:20:00,2141E-3,5C000000,-0724,0828,12189,027.2,045.4,0.480,741.5,01.18,0.508
2014-10-07 00:21:00,2044E-3,5C000000,-0724,0829,12140,027.2,045.4,0.480,741.5,01.18,0.508
2014-10-07 00:22:00,2122E-3,5C000000,-0724,0828,12150,027.1,045.4,0.480,741.5,01.18,0.508
2014-10-07 00:23:00,2055E-3,5C000000,-0724,0827,12219,027.1,045.4,0.480,741.5,01.18,0.508
2014-10-07 00:24:00,1929E-3,5C000000,-0724,0828,12323,027.1,045.4,0.480,741.5,01.18,0.508
2014-10-07 00:25:00,1968E-3,5C000000,-0724,0828,12150,027.1,045.4,0.480,741.5,01.18,0.508
2014-10-07 00:26:00,1902E-3,5C000000,-0724,0827,12176,027.1,045.4,0.480,741.5,01.18,0.508
2014-10-07 00:27:00,1875E-3,5C000000,-0724,0829,12201,027.0,045.4,0.480,741.5,01.18,0.508
2014-10-07 00:28:00,2084E-3,5C000000,-0724,0828,12110,027.0,045.5,0.480,741.5,01.18,0.508
2014-10-07 00:29:00,2037E-3,5C000000,-0724,0828,12274,027.0,045.5,0.480,741.5,01.18,0.508
2014-10-07 00:30:00,1971E-3,5C000000,-0724,0829,12378,027.0,045.4,0.480,741.5,01.18,0.508
2014-10-07 00:31:00,2134E-3,5C000000,-0724,0827,12238,027.0,045.5,0.480,741.5,01.18,0.508
2014-10-07 00:32:00,2025E-3,5C000000,-0724,0828,12178,027.0,045.5,0.480,741.5,01.18,0.508
2014-10-07 00:33:00,2069E-3,5C000000,-0724,0828,12115,026.9,045.4,0.480,741.5,01.18,0.508
2014-10-07 00:34:00,2160E-3,5C000000,-0724,0827,12294,026.9,045.4,0.480,741.5,01.18,0.508
2014-10-07 00:35:00,2052E-3,5C000000,-0724,0828,12293,026.9,045.4,0.480,741.5,01.18,0.508
2014-10-07 00:36:00,2048E-3,5C000000,-0724,0828,12196,027.0,045.4,0.480,741.5,01.18,0.508
2014-10-07 00:37:00,1948E-3,5C000000,-0724,0828,12233,027.0,045.5,0.480,741.5,01.18,0.508
2014-10-07 00:38:00,1828E-3,5C000000,-0724,0828,12142,027.1,045.4,0.480,741.5,01.18,0.508
2014-10-07 00:39:00,2063E-3,5C000000,-0724,0828,12221,027.1,045.5,0.480,741.5,01.18,0.508
2014-10-07 00:40:00,1988E-3,5C000000,-0724,0828,12207,027.2,045.4,0.480,741.4,01.18,0.508
2014-10-07 00:41:00,2103E-3,5C000000,-0724,0828,12086,027.2,045.4,0.480,741.5,01.18,0.508
2014-10-07 00:42:00,2075E-3,5C000000,-0724,0828,12300,027.3,045.4,0.480,741.5,01.18,0.508
2014-10-07 00:43:00,2111E-3,5C000000,-0724,0828,12180,027.3,045.4,0.480,741.5,01.18,0.508
2014-10-07 00:44:00,2056E-3,5C000000,-0724,0828,12194,027.3,045.4,0.480,741.5,01.18,0.508
2014-10-07 00:45:00,2146E-3,5C000000,-0724,0827,12289,027.3,045.4,0.480,741.5,01.18,0.508
2014-10-07 00:46:00,1951E-3,5C000000,-0724,0828,12224,027.3,045.4,0.480,741.5,01.18,0.508
2014-10-07 00:47:00,2049E-3,5C000000,-0724,0828,12242,027.2,045.4,0.480,741.5,01.18,0.508
2014-10-07 00:48:00,1984E-3,5C000000,-0724,0828,12247,027.2,045.4,0.480,741.6,01.18,0.508
2014-10-07 00:49:00,2099E-3,5C000000,-0724,0827,12215,027.1,045.4,0.480,741.6,01.18,0.508
2014-10-07 00:50:00,2074E-3,5C000000,-0724,0828,12173,027.1,045.4,0.480,741.6,01.18,0.508
2014-10-07 00:51:00,2017E-3,5C000000,-0724,0828,12065,027.1,045.4,0.480,741.6,01.18,0.508
2014-10-07 00:52:00,2060E-3,5C000000,-0724,0828,12238,027.1,045.4,0.480,741.6,01.18,0.508
2014-10-07 00:53:00,1929E-3,5C000000,-0724,0828,12288,027.0,045.4,0.480,741.6,01.18,0.508
2014-10-07 00:54:00,1906E-3,5C000000,-0724,0827,12226,027.0,045.4,0.480,741.6,01.18,0.508
2014-10-07 00:55:00,1885E-3,5C000000,-0724,0828,12279,027.0,045.5,0.480,741.6,01.18,0.508
2014-10-07 00:56:00,2110E-3,5C000000,-0724,0828,12163,027.1,045.5,0.480,741.6,01.18,0.508
2014-10-07 00:57:00,2064E-3,5C000000,-0724,0828,12363,027.1,045.4,0.480,741.6,01.18,0.508
2014-10-07 00:58:00,2016E-3,5C000000,-0724,0828,12149,027.2,045.4,0.480,741.6,01.18,0.508
2014-10-07 00:59:00,1936E-3,5C000000,-0724,0829,12161,027.2,045.4,0.480,741.5,01.18,0.508
2014-10-07 01:00:00,2005E-3,5C000000,-0724,0828,12233,027.2,045.5,0.480,741.6,01.18,0.508
2014-10-07 01:01:00,2046E-3,5C000000,-0724,0828,12334,027.1,045.5,0.480,741.6,01.18,0.508
2014-10-07 01:02:00,2005E-3,5C000000,-0724,0828,12148,027.1,045.4,0.480,741.6,01.18,0.508
2014-10-07 01:03:00,2036E-3,5C000000,-0724,0828,12037,027.1,045.4,0.480,741.6,01.18,0.508
2014-10-07 01:04:00,2087E-3,5C000000,-0724,0828,12235,027.1,045.4,0.480,741.6,01.18,0.508
2014-10-07 01:05:00,2008E-3,5C000000,-0724,0829,12306,027.1,045.4,0.480,741.6,01.18,0.508
2014-10-07 01:06:00,2017E-3,5C000000,-0724,0827,12185,027.0,045.4,0.480,741.6,01.18,0.508
2014-10-07 01:07:00,1916E-3,5C000000,-0724,0827,12211,027.0,045.4,0.480,741.6,01.18,0.508
2014-10-07 01:08:00,2168E-3,5C000000,-0724,0828,12109,027.0,045.4,0.480,741.6,01.18,0.508
2014-10-07 01:09:00,2060E-3,5C000000,-0724,0828,12083,027.0,045.4,0.480,741.5,01.18,0.508
2014-10-07 01:10:00,1967E-3,5C000000,-0724,0828,12185,027.0,045.4,0.480,741.5,01.18,0.508
2014-10-07 01:11:00,2095E-3,5C000000,-0724,0827,12118,027.0,045.4,0.480,741.5,01.18,0.508
2014-10-07 01:12:00,2055E-3,5C000000,-0724,0828,12316,027.0,045.4,0.480,741.5,01.18,0.508
2014-10-07 01:13:00,2099E-3,5C000000,-0724,0827,12120,027.0,045.4,0.480,741.5,01.18,0.508
2014-10-07 01:14:00,2038E-3,5C000000,-0724,0827,12057,027.0,045.4,0.480,741.5,01.18,0.508
2014-10-07 01:15:00,1906E-3,5C000000,-0724,0828,12228,027.0,045.4,0.480,741.6,01.18,0.508
2014-10-07 01:16:00,2009E-3,5C000000,-0724,0828,12307,027.0,045.4,0.480,741.5,01.18,0.508
2014-10-07 01:17:00,1912E-3,5C000000,-0724,0828,12176,027.0,045.5,0.480,741.5,01.18,0.508
2014-10-07 01:18:00,2027E-3,5C000000,-0724,0828,12219,027.0,045.5,0.480,741.5,01.18,0.508
2014-10-07 01:19:00,1989E-3,5C000000,-0724,0828,12149,027.0,045.5,0.480,741.5,01.18,0.508
2014-10-07 01:20:00,1988E-3,5C000000,-0724,0828,12183,027.0,045.5,0.480,741.6,01.18,0.508
2014-10-07 01:21:00,1935E-3,5C000000,-0724,0827,12330,027.0,045.4,0.480,741.5,01.18,0.508
2014-10-07 01:22:00,1874E-3,5C000000,-0724,0827,12360,027.1,045.4,0.480,741.6,01.18,0.508
2014-10-07 01:23:00,2047E-3,5C000000,-0724,0827,12367,027.1,045.4,0.480,741.5,01.18,0.508
2014-10-07 01:24:00,2028E-3,5C000000,-0724,0828,12200,027.1,045.4,0.480,741.5,01.18,0.508
2014-10-07 01:25:00,1921E-3,5C000000,-0724,0828,12300,027.2,045.5,0.480,741.5,01.18,0.508
2014-10-07 01:26:00,2078E-3,5C000000,-0724,0828,12230,027.2,045.4,0.480,741.5,01.18,0.508
2014-10-07 01:27:00,1848E-3,5C000000,-0724,0828,12192,027.2,045.4,0.480,741.5,01.18,0.508
2014-10-07 01:28:00,2114E-3,5C000000,-0724,0828,12182,027.2,045.4,0.480,741.5,01.18,0.508
2014-10-07 01:29:00,2018E-3,5C000000,-0724,0829,12332,027.1,045.4,0.480,741.6,01.18,0.508
2014-10-07 01:30:00,1876E-3,5C000000,-0724,0829,12120,027.1,045.4,0.480,741.6,01.18,0.508
2014-10-07 01:31:00,2066E-3,5C000000,-0724,0828,12170,027.1,045.4,0.480,741.6,01.18,0.508
2014-10-07 01:32:00,2121E-3,5C000000,-0724,0827,12327,027.0,045.4,0.480,741.6,01.18,0.508
2014-10-07 01:33:00,1933E-3,5C000000,-0724,0828,12295,027.0,045.4,0.480,741.6,01.18,0.508
2014-10-07 01:34:00,1965E-3,5C000000,-0724,0827,12209,027.0,045.4,0.480,741.6,01.18,0.508
2014-10-07 01:35:00,1992E-3,5C000000,-0724,0828,12272,026.9,045.4,0.480,741.6,01.18,0.508
2014-10-07 01:36:00,2017E-3,5C000000,-0724,0827,12090,026.9,045.4,0.480,741.5,01.18,0.508
2014-10-07 01:37:00,1946E-3,5C000000,-0724,0828,12231,026.9,045.4,0.480,741.5,01.18,0.508
2014-10-07 01:38:00,2025E-3,5C000000,-0724,0827,12286,027.0,045.4,0.480,741.5,01.18,0.508
2014-10-07 01:39:00,2011E-3,5C000000,-0724,0827,12121,026.9,045.4,0.480,741.5,01.18,0.508
2014-10-07 01:40:00,2058E-3,5C000000,-0724,0828,12326,027.0,045.4,0.480,741.5,01.18,0.508
2014-10-07 01:41:00,1945E-3,5C000000,-0724,0828,12264,026.9,045.4,0.481,741.6,01.18,0.508
2014-10-07 01:42:00,1995E-3,5C000000,-0724,0828,12094,026.9,045.4,0.481,741.6,01.18,0.508
2014-10-07 01:43:00,2153E-3,5C000000,-0724,0828,12203,026.9,045.4,0.481,741.6,01.18,0.508
2014-10-07 01:44:00,2027E-3,5C000000,-0724,0828,12193,026.9,045.4,0.480,741.6,01.18,0.508
2014-10-07 01:45:00,1886E-3,5C000000,-0724,0828,12223,026.9,045.4,0.480,741.6,01.18,0.508
2014-10-07 01:46:00,2057E-3,5C000000,-0724,0828,12315,026.9,045.4,0.480,741.6,01.18,0.508
2014-10-07 01:47:00,2016E-3,5C000000,-0724,0828,12297,026.9,045.4,0.480,741.6,01.18,0.508
2014-10-07 01:48:00,2051E-3,5C000000,-0724,0828,12178,026.8,045.4,0.480,741.6,01.18,0.508
2014-10-07 01:49:00,1941E-3,5C000000,-0724,0829,12155,026.8,045.5,0.480,741.5,01.18,0.508
2014-10-07 01:50:00,2039E-3,5C000000,-0724,0828,12362,026.8,045.4,0.480,741.5,01.18,0.508
2014-10-07 01:51:00,2059E-3,5C000000,-0724,0829,12350,026.9,045.4,0.480,741.5,01.18,0.508
2014-10-07 01:52:00,1948E-3,5C000000,-0724,0827,12250,026.9,045.4,0.480,741.6,01.18,0.508
2014-10-07 01:53:00,1833E-3,5C000000,-0724,0827,12241,026.9,045.4,0.480,741.6,01.18,0.508
2014-10-07 01:54:00,2089E-3,5C000000,-0724,0828,12338,026.9,045.4,0.480,741.6,01.18,0.508
2014-10-07 01:55:00,2083E-3,5C000000,-0724,0828,12084,026.8,045.4,0.480,741.6,01.18,0.508
2014-10-07 01:56:00,2004E-3,5C000000,-0724,0828,12290,026.9,045.4,0.480,741.6,01.18,0.508
2014-10-07 01:57:00,1897E-3,5C000000,-0724,0828,12376,026.8,045.4,0.480,741.6,01.18,0.508
2014-10-07 01:58:00,1947E-3,5C000000,-0724,0827,12139,026.8,045.5,0.480,741.6,01.18,0.508
2014-10-07 01:59:00,1863E-3,5C000000,-0724,0828,12204,026.9,045.4,0.481,741.6,01.18,0.508
2014-10-07 02:00:00,1928E-3,5C000000,-0724,0827,12300,026.8,045.4,0.481,741.6,01.18,0.508
2014-10-07 02:01:00,1969E-3,5C000000,-0724,0828,12003,026.9,045.4,0.481,741.6,01.18,0.508
2014-10-07 02:02:00,1887E-3,5C000000,-0724,0828,12266,026.9,045.4,0.481,741.6,01.18,0.508
2014-10-07 02:03:00,1992E-3,5C000000,-0724,0828,12184,026.9,045.5,0.480,741.6,01.18,0.508
2014-10-07 02:04:00,1961E-3,5C000000,-0724,0827,12370,026.9,045.5,0.480,741.6,01.18,0.508
2014-10-07 02:05:00,2002E-3,5C000000,-0724,0829,12129,026.9,045.4,0.480,741.6,01.18,0.508
2014-10-07 02:06:00,2069E-3,5C000000,-0724,0829,12082,027.0,045.4,0.480,741.6,01.18,0.508
2014-10-07 02:07:00,1891E-3,5C000000,-0724,0828,12273,027.0,045.4,0.480,741.6,01.18,0.508
2014-10-07 02:08:00,1859E-3,5C000000,-0724,0827,12072,027.0,045.5,0.480,741.6,01.18,0.508
2014-10-07 02:09:00,2083E-3,5C000000,-0724,0828,12208,027.1,045.4,0.480,741.6,01.18,0.508
2014-10-07 02:10:00,2013E-3,5C000000,-0724,0827,12294,027.3,045.4,0.480,741.6,01.18,0.508
2014-10-07 02:11:00,1901E-3,5C000000,-0724,0828,12109,027.3,045.5,0.480,741.6,01.18,0.508
2014-10-07 02:12:00,1858E-3,5C000000,-0724,0828,12123,027.5,045.4,0.480,741.6,01.18,0.508
2014-10-07 02:13:00,1955E-3,5C000000,-0724,0828,12218,027.6,045.4,0.480,741.6,01.18,0.508
"read_dt","SO2 (ppb)","flags","PMT voltage (V)","lamp voltage (V)","lamp intensity (Hz)","internal temp (C)","react chamber temp (C)","sample flow (l/min)","pres (mmHg)","SO2 bkg (ppb)","SO2 coefficient"
2014-10-07 05:44:00,2203E-3,5C000004,-0724,0821,12206,016.9,021.2,0.500,742.2,01.18,0.508
2014-10-07 05:45:00,2966E-3,5C000004,-0724,0822,12373,016.9,022.0,0.499,742.2,01.18,0.508
2014-10-07 05:46:00,2665E-3,5C000004,-0724,0821,12458,017.0,023.0,0.499,742.3,01.18,0.508
2014-10-07 05:47:00,2933E-3,5C000004,-0724,0822,12290,017.1,024.0,0.499,742.3,01.18,0.508
2014-10-07 05:48:00,2793E-3,5C000004,-0724,0823,12288,017.2,025.1,0.498,742.4,01.18,0.508
2014-10-07 05:49:00,2945E-3,5C000004,-0724,0822,12126,017.3,026.1,0.498,742.4,01.18,0.508
2014-10-07 05:50:00,2700E-3,5C000004,-0724,,12313,017.4,027.1,0.497,742.4,01.18,0.508
2014-10-07 05:51:00,2799E-3,5C000004,-0724,0823,12311,017.6,028.0,0.496,742.4,01.18,0.508
2014-10-07 05:52:00,2842E-3,5C000004,-0724,0824,12241,017.7,028.9,0.496,742.4,01.18,0.508
2014-10-07 05:53:00,2662E-3,5C000004,-0724,0824,12215,017.9,029.8,0.496,742.4,01.18,0.508
2014-10-07 05:54:00,2786E-3,5C000004,-0724,0825,12335,018.0,030.6,0.496,742.4,01.18,0.508
2014-10-07 05:55:00,2755E-3,5C000004,-0724,0825,12333,018.2,031.4,0.494,742.3,01.18,0.508
2014-10-07 05:56:00,2793E-3,5C000004,-0724,0826,12238,018.4,032.2,0.494,742.3,01.18,0.508
2014-10-07 05:57:00,2712E-3,5C000004,-0724,0826,12308,018.6,032.9,0.494,742.3,01.18,0.508
2014-10-07 05:58:00,2805E-3,5C000004,-0724,0826,12132,018.8,033.7,0.494,742.3,01.18,0.508
2014-10-07 05:59:00,2678E-3,5C000004,-0724,0827,12283,019.0,034.4,0.493,742.2,01.18,0.508
2014-10-07 06:00:00,2649E-3,5C000004,-0724,0827,12099,019.2,035.0,0.493,742.2,01.18,0.508
2014-10-07 06:01:00,2582E-3,5C000004,-0724,0827,12285,019.4,035.7,0.492,742.2,01.18,0.508
2014-10-07 06:02:00,2419E-3,5C000004,-0724,0827,12237,019.6,036.3,0.492,742.2,01.18,0.508
2014-10-07 06:03:00,2670E-3,5C000004,-0724,0827,12264,019.8,036.9,0.492,742.2,01.18,0.508
2014-10-07 06:04:00,2620E-3,5C000004,-0724,0828,12279,020.0,037.5,0.491,742.2,01.18,0.508
2014-10-07 06:05:00,2628E-3,5C000004,-0724,0828,12261,020.2,038.1,0.491,742.2,01.18,0.508
2014-10-07 06:06:00,2623E-3,5C000004,-0724,0828,12339,020.3,038.6,0.491,742.2,01.18,0.508
2014-10-07 06:07:00,2379E-3,5C000004,-0724,0829,12219,020.5,039.2,0.490,742.2,01.18,0.508
2014-10-07 06:08:00,2499E-3,5C000004,-0724,0829,12045,020.7,039.7,0.490,742.1,01.18,0.508
2014-10-07 06:09:00,2431E-3,5C000004,-0724,0829,12248,020.9,040.2,0.490,742.2,01.18,0.508
2014-10-07 06:10:00,2299E-3,5C000004,-0724,0829,12223,021.1,040.7,0.489,742.2,01.18,0.508
2014-10-07 06:11:00,2428E-3,5C000004,-0724,0828,12453,021.3,041.2,0.489,742.2,01.18,0.508
2014-10-07 06:12:00,2428E-3,5C000004,-0724,0829,12208,021.4,041.7,0.489,742.1,01.18,0.508
2014-10-07 06:13:00,2332E-3,5C000004,-0724,0829,12169,021.6,042.2,0.488,742.1,01.18,0.508
2014-10-07 06:14:00,2308E-3,5C000004,-0724,0829,12269,021.8,042.6,0.488,742.0,01.18,0.508
2014-10-07 06:15:00,2301E-3,5C000000,-0724,0829,12329,021.9,043.1,0.487,742.0,01.18,0.508
2014-10-07 06:16:00,2197E-3,5C000000,-0724,0829,12318,022.0,043.5,0.487,742.0,01.18,0.508
2014-10-07 06:17:00,2381E-3,5C000000,-0724,0830,11996,022.2,043.9,0.487,742.0,01.18,0.508
2014-10-07 06:18:00,2281E-3,5C000000,-0724,0829,12293,022.4,044.3,0.487,742.0,01.18,0.508
2014-10-07 06:19:00,2338E-3,5C000000,-0724,0829,12036,022.5,044.7,0.487,742.0,01.18,0.508
2014-10-07 06:20:00,2240E-3,5C000000,-0724,0829,12183,022.6,045.1,0.486,742.0,01.18,0.508
2014-10-07 06:21:00,2145E-3,5C000000,-0724,0829,12124,022.8,045.5,0.486,741.9,01.18,0.508
2014-10-07 06:22:00,2255E-3,5C000000,-0724,0829,12211,022.9,045.5,0.486,741.9,01.18,0.508
2014-10-07 06:23:00,2136E-3,5C000000,-0724,0830,12110,023.1,045.5,0.486,742.0,01.18,0.508
2014-10-07 06:24:00,2161E-3,5C000000,-0724,0829,12281,023.2,045.4,0.486,742.0,01.18,0.508
2014-10-07 06:25:00,2015E-3,5C000000,-0724,0829,12195,023.3,045.5,0.485,742.0,01.18,0.508
2014-10-07 06:26:00,2149E-3,5C000000,-0724,0828,12309,023.4,045.4,0.485,742.0,01.18,0.508
2014-10-07 06:27:00,2162E-3,5C000000,-0724,0829,12260,023.6,045.4,0.485,742.0,01.18,0.508
2014-10-07 06:28:00,2159E-3,5C000000,-0724,0828,12216,023.7,045.4,0.485,742.0,01.18,0.508
2014-10-07 06:29:00,2203E-3,5C000000,-0724,0829,12022,023.9,045.5,0.484,741.9,01.18,0.508
2014-10-07 06:30:00,2038E-3,5C000000,-0724,0829,12232,023.9,045.5,0.484,741.9,01.18,0.508
2014-10-07 06:31:00,2203E-3,5C000000,-0724,0829,12262,024.1,045.4,0.484,741.9,01.18,0.508
2014-10-07 06:32:00,2059E-3,5C000000,-0724,0829,12226,024.2,045.4,0.484,741.9,01.18,0.508
2014-10-07 06:33:00,2196E-3,5C000000,-0724,0828,12305,024.3,045.4,0.484,741.9,01.18,0.508
2014-10-07 06:34:00,2136E-3,5C000000,-0724,0829,12210,024.4,045.4,0.483,741.9,01.18,0.508
2014-10-07 06:35:00,2216E-3,5C000000,-0724,0829,12155,024.5,045.4,0.483,741.9,01.18,0.508
2014-10-07 06:36:00,2077E-3,5C000000,-0724,0829,12387,024.7,045.4,0.483,741.9,01.18,0.508
2014-10-07 06:37:00,2208E-3,5C000000,-0724,0830,12255,024.8,045.4,0.483,741.9,01.18,0.508
2014-10-07 06:38:00,2191E-3,5C000000,-0724,0829,12128,024.9,045.4,0.483,741.9,01.18,0.508
2014-10-07 06:39:00,2244E-3,5C000000,-0724,0829,12259,025.0,045.4,0.483,741.9,01.18,0.508
2014-10-07 06:40:00,2246E-3,5C000000,-0724,0829,12348,025.1,045.4,0.482,741.9,01.18,0.508
2014-10-07 06:41:00,2144E-3,5C000000,-0724,0828,12143,025.3,045.4,0.483,741.8,01.18,0.508
2014-10-07 06:42:00,2044E-3,5C000000,-0724,0829,12101,025.3,045.4,0.482,741.8,01.18,0.508
2014-10-07 06:43:00,2117E-3,5C000000,-0724,0829,12320,025.5,045.4,0.482,741.8,01.18,0.508
2014-10-07 06:44:00,2054E-3,5C000000,-0724,0828,12131,025.5,045.4,0.482,741.8,01.18,0.508
2014-10-07 06:45:00,2215E-3,5C000000,-0724,0829,12148,025.6,045.4,0.482,741.8,01.18,0.508
2014-10-07 06:46:00,2153E-3,5C000000,-0724,0828,12272,025.7,045.4,0.481,741.8,01.18,0.508
2014-10-07 06:47:00,1978E-3,5C000000,-0724,0829,12169,025.8,045.4,0.482,741.8,01.18,0.508
2014-10-07 06:48:00,2021E-3,5C000000,-0724,0828,12183,025.9,045.4,0.481,741.8,01.18,0.508
2014-10-07 06:49:00,1951E-3,5C000000,-0724,0829,12138,026.0,045.4,0.482,741.8,01.18,0.508
2014-10-07 06:50:00,2144E-3,5C000000,-0724,0828,12206,026.1,045.4,0.481,741.8,01.18,0.508
2014-10-07 06:51:00,1950E-3,5C000000,-0724,0829,12336,026.2,045.4,0.481,741.8,01.18,0.508
2014-10-07 06:52:00,2034E-3,5C000000,-0724,0828,12188,026.3,045.4,0.481,741.7,01.18,0.508
2014-10-07 06:53:00,2100E-3,5C000000,-0724,0828,12177,026.4,045.4,0.481,741.7,01.18,0.508
2014-10-07 06:54:00,2169E-3,5C000000,-0724,0829,12312,026.5,045.4,0.480,741.7,01.18,0.508
2014-10-07 06:55:00,2109E-3,5C000000,-0724,0828,12223,026.5,045.4,0.481,741.7,01.18,0.508
2014-10-07 06:56:00,2104E-3,5C000000,-0724,0828,12216,026.6,045.4,0.480,741.7,01.18,0.508
2014-10-07 06:57:00,2116E-3,5C000000,-0724,0828,12225,026.7,045.4,0.480,741.7,01.18,0.508
2014-10-07 06:58:00,1982E-3,5C000000,-0724,0828,12137,026.7,045.4,0.481,741.7,01.18,0.508
2014-10-07 06:59:00,1986E-3,5C000000,-0724,0828,12118,026.8,045.4,0.480,741.7,01.18,0.508
2014-10-07 07:00:00,2107E-3,5C000000,-0724,0828,12248,026.8,045.4,0.480,741.7,01.18,0.508
2014-10-07 07:01:00,1956E-3,5C000000,-0724,0829,12059,026.9,045.4,0.480,741.7,01.18,0.508
2014-10-07 07:02:00,2261E-3,5C000000,-0724,0828,12243,026.9,045.4,0.481,741.7,01.18,0.508
2014-10-07 07:03:00,2045E-3,5C000000,-0724,0828,12187,027.0,045.4,0.480,741.7,01.18,0.508
2014-10-07 07:04:00,2065E-3,5C000000,-0724,0828,12184,027.0,045.4,0.480,741.7,01.18,0.508
2014-10-07 07:05:00,2168E-3,5C000000,-0724,0828,12441,027.0,045.4,0.480,741.7,01.18,0.508
2014-10-07 07:06:00,2111E-3,5C000000,-0724,0829,12098,027.1,045.4,0.480,741.7,01.18,0.508
2014-10-07 07:07:00,2083E-3,5C000000,-0724,0829,12098,027.2,045.4,0.479,741.7,01.18,0.508
2014-10-07 07:08:00,2033E-3,5C000000,-0724,0829,12146,027.2,045.4,0.480,741.7,01.18,0.508
2014-10-07 07:09:00,2096E-3,5C000000,-0724,0828,12158,027.3,045.4,0.480,741.7,01.18,0.508
2014-10-07 07:10:00,1961E-3,5C000000,-0724,0828,12250,027.3,045.4,0.479,741.7,01.18,0.508
2014-10-07 07:11:00,2059E-3,5C000000,-0724,0828,12212,027.4,045.4,0.479,741.7,01.18,0.508
2014-10-07 07:12:00,2052E-3,5C000000,-0724,0828,12245,027.4,045.4,0.480,741.7,01.18,0.508
2014-10-07 07:13:00,2053E-3,5C000000,-0724,0828,12250,027.5,045.4,0.479,741.7,01.18,0.508
2014-10-07 07:14:00,2053E-3,5C000000,-0724,0828,12330,027.5,045.5,0.479,741.7,01.18,0.508
2014-10-07 07:15:00,1894E-3,5C000000,-0724,0827,12294,027.6,045.4,0.480,741.7,01.18,0.508
2014-10-07 07:16:00,1911E-3,5C000000,-0724,0829,12355,027.6,045.4,0.479,741.7,01.18,0.508
2014-10-07 07:17:00,1998E-3,5C000000,-0724,0828,12406,027.6,045.5,0.479,741.7,01.18,0.508
2014-10-07 07:18:00,2098E-3,5C000000,-0724,0828,12284,027.7,045.5,0.479,741.7,01.18,0.508
2014-10-07 07:19:00,2067E-3,5C000000,-0724,0828,12256,027.7,045.4,0.479,741.7,01.18,0.508
2014-10-07 07:20:00,1970E-3,5C000000,-0724,0829,12040,027.8,045.4,0.479,741.7,01.18,0.508
2014-10-07 07:21:00,2138E-3,5C000000,-0724,0828,12310,027.8,045.5,0.479,741.8,01.18,0.508
2014-10-07 07:22:00,2062E-3,5C000000,-0724,0829,12158,027.9,045.5,0.479,741.8,01.18,0.508
2014-10-07 07:23:00,2168E-3,5C000000,-0724,0828,12312,027.9,045.5,0.478,741.8,01.18,0.508
2014-10-07 07:24:00,2064E-3,5C000000,-0724,0829,12314,028.0,045.5,0.479,741.8,01.18,0.508
2014-10-07 07:25:00,2099E-3,5C000000,-0724,0828,12085,028.0,045.5,0.479,741.8,01.18,0.508
2014-10-07 07:26:00,2050E-3,5C000000,-0724,0829,12304,028.0,045.5,0.478,741.8,01.18,0.508
2014-10-07 07:27:00,2065E-3,5C000000,-0724,0828,12205,028.1,045.5,0.478,741.8,01.18,0.508
2014-10-07 07:28:00,2222E-3,5C000000,-0724,0828,12289,028.1,045.5,0.479,741.8,01.18,0.508
2014-10-07 07:29:00,2120E-3,5C000000,-0724,0828,12189,028.2,045.4,0.479,741.8,01.18,0.508
2014-10-07 07:30:00,2102E-3,5C000000,-0724,0828,12108,028.2,045.5,0.479,741.8,01.18,0.508
2014-10-07 07:31:00,1995E-3,5C000000,-0724,0828,12290,028.2,045.5,0.478,741.8,01.18,0.508
2014-10-07 07:32:00,2204E-3,5C000000,-0724,0829,12250,028.3,045.5,0.478,741.8,01.18,0.508
2014-10-07 07:33:00,2103E-3,5C000000,-0724,0829,12176,028.3,045.4,0.478,741.8,01.18,0.508
2014-10-07 07:34:00,2297E-3,5C000000,-0724,0829,12164,028.3,045.4,0.478,741.8,01.18,0.508
2014-10-07 07:35:00,2317E-3,5C000000,-0724,0829,12205,028.4,045.4,0.478,741.9,01.18,0.508
2014-10-07 07:36:00,2232E-3,5C000000,-0724,0829,12286,028.4,045.5,0.478,741.9,01.18,0.508
2014-10-07 07:37:00,2253E-3,5C000000,-0724,0829,12213,028.4,045.5,0.478,741.9,01.18,0.508
2014-10-07 07:38:00,2279E-3,5C000000,-0724,0828,12276,028.5,045.5,0.478,741.9,01.18,0.508
2014-10-07 07:39:00,2381E-3,5C000000,-0724,0827,12247,028.5,045.5,0.478,741.9,01.18,0.508
2014-10-07 07:40:00,2317E-3,5C000000,-0724,0829,12231,028.5,045.5,0.478,741.9,01.18,0.508
2014-10-07 07:41:00,2407E-3,5C000000,-0724,0828,12054,028.6,045.5,0.478,741.9,01.18,0.508
2014-10-07 07:42:00,2514E-3,5C000000,-0724,0829,12282,028.6,045.5,0.478,741.9,01.18,0.508
2014-10-07 07:43:00,2461E-3,5C000000,-0724,0829,12254,028.6,045.5,0.477,741.9,01.18,0.508
2014-10-07 07:44:00,2409E-3,5C000000,-0724,0828,12121,028.7,045.5,0.477,741.9,01.18,0.508
2014-10-07 07:45:00,2343E-3,5C000000,-0724,0828,12311,028.7,045.5,0.477,741.9,01.18,0.508
2014-10-07 07:46:00,2389E-3,5C000000,-0724,0829,12147,028.7,045.5,0.478,741.9,01.18,0.508
2014-10-07 07:47:00,2474E-3,5C000000,-0724,0829,12305,028.8,045.5,0.478,741.9,01.18,0.508
2014-10-07 07:48:00,2516E-3,5C000000,-0724,0829,12075,028.8,045.5,0.478,741.9,01.18,0.508